User: anonymous   Login
Location: Unspecified
(0.0000°N, 0.0000°E)
Time: 07:38:32
(UTC+00:00)
Language:

HODOYOSHI 1 - Orbit

View from above orbital plane
View from above orbital plane
View from above satellite
View from above satellite

Ground track
Ground track

The orbit data is extracted from the following two-line orbital elements,

1 40299U 14070B   17289.91504072 +.00001467 +00000-0 +66180-4 0  9994
2 40299 097.3972 010.7812 0014222 031.8129 020.7496 15.22514625163468
Epoch (UTC): 16 October 2017 21:57:39
Eccentricity: 0.0014222
inclination: 97.3972°
perigee height: 488 km
apogee height: 508 km
right ascension of ascending node: 10.7812°
argument of perigee: 31.8129°
revolutions per day: 15.22514625
mean anomaly at epoch: 20.7496°
orbit number at epoch: 16346

The dashed part of the orbit path shows where the satellite is in the earth's shadow,  

DLR